Regional Weather Roundup
Issued by NWS Cleveland, OH

Home | Current Version | Previous Version | Graphics & Text | Print | Product List | Glossary On
Versions: 1 2 3 4 5 6 7 8 9 10 11 12 13 14 15 16 17 18 19 20 21 22 23 24 25 26 27 28 29 30 31 32 33 34 35 36 37 38 39 40 41 42 43 44 45 46 47 48 49 50
000
ASUS41 KCLE 240212
RWRCLE
OHIO REGIONAL WEATHER ROUNDUP
NATIONAL WEATHER SERVICE WILMINGTON, OH
1000 PM EDT FRI JUN 23 2017

NOTE: "FAIR" INDICATES FEW OR NO CLOUDS BELOW 12,000 FEET WITH NO
SIGNIFICANT WEATHER AND/OR OBSTRUCTIONS TO VISIBILITY.

OHZ001>008-015>018-024>027-034-035-043-044-240300-
   NORTHWEST OHIO

CITY           SKY/WX    TMP DP  RH WIND       PRES   REMARKS
DEFIANCE       FAIR      67  55  65 W3        29.73R
FINDLAY        FAIR      69  65  86 W6        29.72R
TOLEDO EXPRESS FAIR      68  61  78 W7        29.70R
TOLEDO EXEC    FAIR      71  63  75 W9        29.70R
LIMA           FAIR      68  66  93 W7        29.74R
$$

OHZ009>014-019>023-028>033-038-089-240300-
   NORTHEAST OHIO

CITY           SKY/WX    TMP DP  RH WIND       PRES   REMARKS
CLE-HOPKINS    LGT RAIN  72  67  84 W8        29.69S
CLE-LAKEFRONT  LGT RAIN  71  67  87 SW10      29.66R
CUY CO. ARPT   LGT RAIN  72  66  83 W14       29.68R
LORAIN-ELYRIA  CLOUDY    70  62  76 W8        29.69R
ASHTABULA      CLOUDY    70  68  93 W9        29.67R
AKRON-CANTON   CLOUDY    69  65  86 W7        29.70F
WOOSTER        CLOUDY    69  66  90 W8        29.71S
MANSFIELD      CLOUDY    68  67  96 W6        29.72R
YOUNGSTOWN     CLOUDY    69  67  93 SW8       29.68F
$$

OHZ042-051>053-060>062-070>072-077>081-240300-
  SOUTHWEST OHIO

CITY           SKY/WX    TMP DP  RH WIND       PRES   REMARKS
CINC-COVINGTON CLOUDY    69  68  96 W5        29.79R
CINC-LUNKEN    LGT RAIN  69  68  96 CALM      29.77R
HAMILTON       CLOUDY    70  69  97 W5        29.79R
DAYTON         CLOUDY    68  66  93 NW9       29.77R
WRIGHT-PAT AFB DRIZZLE   69  69 100 W6        29.75R
DAYTON GENERAL CLOUDY    68  67  96 W5        29.76R
WILMINGTON     CLOUDY    67  67 100 CALM      29.75R
$$

OHZ036-037-039>041-045>050-054>059-063>069-073>076-082>088-240300-
  CENTRAL AND SOUTHEAST OHIO

CITY           SKY/WX    TMP DP  RH WIND       PRES   REMARKS
COLUMBUS       CLOUDY    69  69 100 SW7       29.73R
OSU AIRPORT    CLOUDY    68  68 100 S5        29.73R
BOLTON FIELD   NOT AVBL
RICKENBACK AFB CLOUDY    66  66 100 S3        29.73R
NEWARK         CLOUDY    68  66  93 SW3       29.73R
MARION         CLOUDY    69  66  90 W7        29.73R
LANCASTER      LGT RAIN  67  66  97 SW6       29.75R
ZANESVILLE     LGT RAIN  68  66  93 CALM      29.72R
NEW PHILLY     LGT RAIN  69  68  96 CALM      29.71F
$$




USA.gov is the U.S. government's official web portal to all federal, state and local government web resources and services.